Find Kosmos-1541

NORAD ID: 14790 Int'l Des: 1984-024 Owner: PVO Country: SU operational
MEOELLIPTICALHEO_ELLIPTICALSEMI_SYNC

实时位置

正在加载3D地球...

关于 Kosmos-1541

正在加载描述...

即将过境

Passes for default location (London). Set your location on the main map for personalized predictions.

高度历史

Loading altitude history...

两行轨道根数

1 14790U 84024A 26104.44478513 .00000204 00000-0 00000+0 0 9993
2 14790 71.7153 150.8805 5149523 342.4054 33.4945 2.00580522280669
Epoch: Apr 14, 2026 • Age: 13 hours

当前状态

高度 23189.4 km
速度 3.46 km/s
星下点 60.40°N, 92.33°E
发射日期 Mar 6, 1984
运行时间 42.1 years
类型 other

技术详情

分类 Payload
质量 1250.00 kg
干质量 1150.00 kg
总质量 1250.00 kg
长度 4.00 m
直径 2.00 m
跨度 5.00 m
形状 Cyl + 2 Pan
制造商 NPOL/KOMET
平台类型 Oko
阶段状态 In Orbit
所有者/国家 PVO/SU

Most Searched